[[{"header":{"parameterUnit":"m.s-1","parameterCategory":1,"la1":30.2991,"la2":30.254,"lo1":-89.0895,"lo2":-89.0444,"dy":0.0017,"dx":0.0017,"nx":28,"ny":28,"refTime":"2026-02-03T03:00:00:Z","depth":0,"parameterNumber":2,"parameterNumberName":"U-component_of_WINDS"},"data":[0,0,0,0,0,0,0,0,0,0,0,0,0,0,0,0,0,0,0,0,0,0,0,0,0,0,0,0,0,0,0,0,0,0,0,0,0,0,0,0,0,0,0,0,0,0,0,0,0,0,0,0,0,0,0,0,0,0,1.4242,1.4242,0,1.4326,1.4327,1.4328,1.4369,1.4369,1.4368,1.4368,1.446,1.4463,1.4465,0,0,0,0,0,0,0,0,0,0,0,0,0,1.4122,1.4124,1.4241,1.4243,1.4244,1.4326,1.4327,1.4328,1.4369,1.4369,1.4368,1.4368,1.446,1.4463,1.4466,0,0,0,0,0,0,0,0,0,0,0,0,0,1.4187,1.4125,1.4241,1.4274,1.4277,1.4325,1.4327,1.4328,1.4369,1.4369,1.4368,1.4368,1.4459,1.4462,1.4466,1.449,0,0,1.4477,1.4479,0,0,0,0,0,0,0,0,1.4183,1.4191,1.4268,1.4271,1.4276,1.4336,1.4319,1.4383,1.4369,1.4334,1.4368,1.4368,1.442,1.4427,1.4443,1.4495,1.4498,1.4478,1.448,1.4482,1.4483,0,0,0,0,0,0,0,1.4179,1.4188,1.4275,1.4269,1.4274,1.4286,1.4295,1.4331,1.4376,1.4337,1.434,1.4349,1.4422,1.4439,1.4445,1.45,1.4478,1.4481,1.4483,1.4485,1.4579,1.4579,0,0,0,0,0,0,1.4168,1.4184,1.4272,1.4278,1.4228,1.4288,1.4298,1.4317,1.4376,1.4385,1.4349,1.4351,1.4433,1.4441,1.4449,1.4483,1.4482,1.4485,1.4487,1.4579,1.4579,1.4579,0,0,0,0,0,0,1.4165,1.4176,1.4269,1.4232,1.4244,1.429,1.4311,1.4319,1.4336,1.4385,1.4394,1.4358,1.4433,1.4443,1.448,1.4486,1.4487,1.449,1.4578,1.4579,1.4579,1.455,0,0,0,0,0,0,1.4162,1.4174,1.4182,1.4231,1.4246,1.4296,1.4311,1.4321,1.4342,1.4345,1.4396,1.4404,1.4434,1.4474,1.4484,1.4492,1.4493,1.4578,1.4579,1.4579,1.455,1.4549,1.4548,0,0,0,0,0,1.4157,1.4171,1.4182,1.4193,1.4257,1.4297,1.4305,1.4337,1.4342,1.4352,1.4384,1.4403,1.4484,1.4477,1.4488,1.4498,1.4578,1.4579,1.4579,1.4551,1.4549,1.4548,0,0,0,0,0,0,1.4123,1.4178,1.4191,1.4221,1.4254,1.4303,1.4316,1.4334,1.4368,1.4369,1.4409,1.4421,1.4454,1.448,1.4471,1.4526,1.4533,1.4536,1.4508,1.4507,1.4505,1.4499,1.4496,0,0,0,0,0,1.4118,1.4144,1.4192,1.4214,1.4229,1.427,1.4289,1.431,1.4347,1.4361,1.4396,1.4432,1.4466,1.4488,1.4522,1.4554,1.4568,1.4566,1.4565,1.4564,1.4566,1.4588,1.4589,1.4581,1.4581,1.4581,0,0,1.411,1.4144,1.4158,1.4208,1.4236,1.4264,1.4281,1.431,1.4332,1.4366,1.4403,1.443,1.4473,1.4508,1.4525,1.453,1.4571,1.4565,1.4563,1.4566,1.4589,1.4589,1.459,1.4582,1.4582,1.4582,0,0,1.4109,1.4136,1.4158,1.4186,1.4228,1.4255,1.426,1.4308,1.4327,1.4363,1.439,1.4418,1.4475,1.4506,1.4529,1.4542,1.4562,1.4552,1.4546,1.4567,1.4567,1.4568,1.4575,1.4577,1.4554,1.4554,1.4554,0,1.4094,1.4135,1.4168,1.4195,1.4218,1.4249,1.4273,1.4299,1.435,1.4366,1.4371,1.4444,1.4475,1.4519,1.4522,1.4539,1.4549,1.4546,1.4564,1.4565,1.4567,1.4574,1.4576,1.4553,1.4553,1.4553,1.4553,0,1.4116,1.4145,1.4158,1.4205,1.4229,1.4255,1.4293,1.4314,1.4335,1.4362,1.4401,1.444,1.4483,1.4495,1.4515,1.4543,1.4545,1.4556,1.4564,1.4565,1.4573,1.4575,1.4551,1.4551,1.4552,1.4552,0,0,1.4095,1.4161,1.4165,1.4188,1.4237,1.4261,1.429,1.4331,1.4349,1.4384,1.4411,1.4459,1.447,1.4497,1.4521,1.4539,1.455,1.4549,1.4551,1.4549,1.4585,1.4577,1.4579,1.4563,1.4563,1.4564,1.4582,0,1.4102,1.4152,1.4183,1.4222,1.425,1.4281,1.4307,1.4341,1.4368,1.4398,1.4429,1.4463,1.4475,1.4491,1.451,1.4544,1.4558,1.4543,1.459,1.4592,1.4579,1.4582,1.4573,1.4588,1.4585,1.4585,1.4586,0,1.4117,1.415,1.4191,1.4239,1.4253,1.4274,1.4316,1.4343,1.4384,1.4403,1.4432,1.4457,1.4491,1.4496,1.4546,1.4535,1.4557,1.4577,1.4578,1.4585,1.4589,1.4591,1.4594,1.4596,1.459,1.459,1.4589,0,1.4099,1.4155,1.4187,1.4206,1.4262,1.4277,1.4302,1.4342,1.4366,1.4403,1.4419,1.446,1.4482,1.4515,1.4551,1.4551,1.4598,1.4605,1.4616,1.4616,1.4625,1.4624,1.4633,1.4637,1.4637,1.4637,1.4637,0,1.4105,1.4129,1.418,1.42,1.423,1.4266,1.4295,1.4323,1.4359,1.4387,1.4417,1.4443,1.4488,1.4521,1.455,1.4588,1.4598,1.4616,1.4623,1.4613,1.4611,1.4629,1.4629,1.4638,1.4637,1.4637,1.4637,0,1.409,1.4125,1.4163,1.4213,1.4227,1.4246,1.4291,1.4313,1.4342,1.4377,1.4388,1.4434,1.4474,1.4513,1.4567,1.4587,1.4625,1.4635,1.4611,1.4615,1.4625,1.4624,1.4646,1.4652,1.465,1.465,1.465,0,1.4092,1.4111,1.4164,1.4184,1.4208,1.424,1.4264,1.4301,1.4326,1.4375,1.4392,1.4434,1.4469,1.4532,1.4572,1.4615,1.4626,1.4631,1.4633,1.4624,1.4629,1.4628,1.4631,1.4631,1.463,1.463,1.463,0,1.4092,1.4108,1.4141,1.418,1.4207,1.424,1.4275,1.429,1.4335,1.4361,1.4401,1.4429,1.4484,1.4527,1.4574,1.4602,1.4625,1.4629,1.4635,1.4625,1.4611,1.4621,1.461,1.4629,1.4629,1.4629,1.4629,1.4629,1.4087,1.4106,1.4147,1.4183,1.4212,1.4244,1.4268,1.43,1.4333,1.438,1.4401,1.4443,1.4486,1.4552,1.458,1.4615,1.462,1.4627,1.4629,1.4631,1.463,1.4605,1.4623,1.4624,1.4624,1.4624,1.4624,0,1.4089,1.4117,1.4149,1.4196,1.4225,1.4242,1.4282,1.4305,1.4341,1.4378,1.4413,1.4461,1.4503,1.4546,1.4591,1.4611,1.4623,1.4622,1.4622,1.4628,1.4621,1.4613,1.4612,1.4612,1.4612,1.4612,1.4612,1.4612,1.4094,1.4129,1.415,1.4201,1.423,1.4269,1.4291,1.4322,1.4352,1.4404,1.4438,1.4465,1.4507,1.4555,1.4595,1.4607,1.4623,1.462,1.4635,1.4628,1.4628,1.4629,1.4622,1.4622,1.4623,1.464,1.464,1.464]},{"header":{"parameterUnit":"m.s-1","parameterCategory":1,"la1":30.2991,"la2":30.254,"lo1":-89.0895,"lo2":-89.0444,"dy":0.0017,"dx":0.0017,"nx":28,"ny":28,"refTime":"2026-02-03T03:00:00:Z","depth":0,"parameterNumber":3,"parameterNumberName":"V-component_of_WINDS"},"data":[0,0,0,0,0,0,0,0,0,0,0,0,0,0,0,0,0,0,0,0,0,0,0,0,0,0,0,0,0,0,0,0,0,0,0,0,0,0,0,0,0,0,0,0,0,0,0,0,0,0,0,0,0,0,0,0,0,0,4.14,4.1399,0,4.1304,4.1303,4.1302,4.1274,4.1274,4.1275,4.1275,4.1174,4.1171,4.1168,0,0,0,0,0,0,0,0,0,0,0,0,0,4.1555,4.1552,4.14,4.1398,4.1397,4.1305,4.1303,4.1302,4.1273,4.1274,4.1275,4.1275,4.1175,4.1171,4.1167,0,0,0,0,0,0,0,0,0,0,0,0,0,4.1476,4.1551,4.14,4.1372,4.1369,4.1305,4.1303,4.1302,4.1273,4.1274,4.1275,4.1276,4.1176,4.1172,4.1167,4.1123,0,0,4.1153,4.115,0,0,0,0,0,0,0,0,4.1481,4.147,4.1377,4.1374,4.137,4.1302,4.1321,4.1242,4.1273,4.1309,4.1275,4.1276,4.1216,4.1208,4.1188,4.1118,4.1114,4.1152,4.1149,4.1147,4.1146,0,0,0,0,0,0,0,4.1486,4.1474,4.1362,4.1376,4.1371,4.1364,4.1353,4.1306,4.1259,4.1306,4.1304,4.1293,4.1214,4.1193,4.1186,4.1112,4.1152,4.1148,4.1145,4.1143,4.1005,4.1004,0,0,0,0,0,0,4.1497,4.1479,4.1365,4.1359,4.1428,4.136,4.1349,4.1323,4.126,4.1251,4.1293,4.1292,4.12,4.1191,4.1182,4.1128,4.1147,4.1143,4.114,4.1005,4.1004,4.1003,0,0,0,0,0,0,4.15,4.1487,4.1369,4.1418,4.1403,4.1357,4.1328,4.132,4.13,4.125,4.1241,4.128,4.1201,4.1188,4.1139,4.1124,4.1141,4.1136,4.1006,4.1005,4.1004,4.1019,0,0,0,0,0,0,4.1505,4.1488,4.1471,4.1418,4.14,4.1328,4.1327,4.1318,4.1292,4.129,4.1235,4.1227,4.12,4.1146,4.1134,4.1118,4.1133,4.1008,4.1006,4.1004,4.1019,4.1018,4.1017,0,0,0,0,0,4.151,4.1478,4.147,4.1457,4.1378,4.1327,4.1316,4.1287,4.1291,4.1273,4.1242,4.1229,4.1128,4.1141,4.1127,4.1109,4.1008,4.1006,4.1004,4.102,4.1018,4.1017,0,0,0,0,0,0,4.1527,4.147,4.1461,4.1411,4.1374,4.1322,4.1299,4.1286,4.1247,4.1247,4.1211,4.1199,4.1153,4.1126,4.1142,4.1065,4.1068,4.1063,4.1084,4.1082,4.1081,4.1088,4.1129,0,0,0,0,0,4.1526,4.149,4.1441,4.1401,4.1384,4.1345,4.1321,4.1302,4.1262,4.1246,4.1211,4.1172,4.1131,4.1105,4.1065,4.1016,4.1004,4.0997,4.0996,4.0995,4.0991,4.0965,4.0962,4.0997,4.0997,4.0997,0,0,4.1521,4.1485,4.1464,4.1404,4.1373,4.1337,4.1332,4.1292,4.1264,4.124,4.1191,4.1164,4.1118,4.107,4.1046,4.1046,4.098,4.0993,4.0993,4.0989,4.0963,4.096,4.0957,4.0996,4.0996,4.0996,0,0,4.1494,4.1463,4.1428,4.1398,4.1353,4.1328,4.1319,4.127,4.1252,4.1203,4.1184,4.1151,4.1081,4.105,4.1025,4.0991,4.0978,4.0978,4.0972,4.0947,4.0945,4.0942,4.0931,4.0927,4.0975,4.0975,4.0975,0,4.1494,4.1438,4.1411,4.1373,4.1348,4.1326,4.129,4.1262,4.1206,4.1188,4.1189,4.1104,4.1071,4.1016,4.1008,4.0988,4.0978,4.0984,4.0947,4.0945,4.0942,4.0931,4.0926,4.0975,4.0975,4.0975,4.0975,0,4.1441,4.1403,4.138,4.1328,4.13,4.1263,4.123,4.1205,4.119,4.1164,4.1116,4.1077,4.103,4.1015,4.0998,4.0958,4.096,4.0955,4.0956,4.0939,4.0928,4.0924,4.0976,4.0976,4.0976,4.0976,0,0,4.142,4.1356,4.1348,4.1326,4.1276,4.1245,4.1209,4.1164,4.1144,4.1106,4.1075,4.1018,4.1015,4.0986,4.0966,4.0945,4.0922,4.0942,4.0941,4.0941,4.0876,4.088,4.0876,4.0913,4.0912,4.0911,4.088,0,4.1387,4.1322,4.1297,4.1243,4.1209,4.1189,4.1157,4.1123,4.11,4.1066,4.104,4.1001,4.0998,4.0981,4.0959,4.0929,4.0908,4.0931,4.0883,4.0882,4.0896,4.087,4.0873,4.0846,4.0876,4.0875,4.0874,0,4.1339,4.1304,4.1248,4.1205,4.1189,4.1161,4.112,4.1089,4.105,4.1034,4.1005,4.0987,4.0948,4.0953,4.09,4.0916,4.0895,4.0878,4.0876,4.0871,4.0877,4.0864,4.0836,4.0832,4.0867,4.0868,4.0868,0,4.1331,4.1269,4.1228,4.121,4.1158,4.1139,4.1116,4.1079,4.1055,4.1018,4.1003,4.0962,4.0939,4.0908,4.088,4.0886,4.083,4.0832,4.0816,4.0817,4.0804,4.0805,4.0773,4.0791,4.0791,4.0791,4.0791,0,4.1297,4.1264,4.1225,4.1199,4.1162,4.1134,4.1097,4.1073,4.104,4.101,4.099,4.0962,4.0927,4.0894,4.0872,4.0832,4.0822,4.0808,4.0803,4.081,4.0812,4.0796,4.0797,4.079,4.079,4.079,4.079,0,4.1281,4.1254,4.1208,4.1164,4.1152,4.1127,4.1089,4.1064,4.104,4.1002,4.0992,4.0955,4.0916,4.0885,4.0833,4.0819,4.0777,4.077,4.079,4.0787,4.0773,4.0775,4.073,4.0723,4.0745,4.0745,4.0744,0,4.1262,4.1236,4.1191,4.117,4.1148,4.1114,4.1091,4.1063,4.1039,4.0995,4.0975,4.0936,4.0902,4.0841,4.0809,4.077,4.0763,4.075,4.0756,4.0766,4.0763,4.0766,4.0763,4.0749,4.0748,4.0748,4.0748,0,4.123,4.1219,4.1186,4.1149,4.1122,4.1091,4.1059,4.1043,4.101,4.0984,4.0945,4.0919,4.0869,4.0829,4.0788,4.0764,4.0751,4.0747,4.0741,4.0748,4.0761,4.0755,4.0788,4.0748,4.0748,4.0748,4.0748,4.0748,4.1212,4.1189,4.1155,4.1119,4.1094,4.1065,4.1041,4.1015,4.0983,4.094,4.0926,4.0886,4.085,4.0793,4.077,4.0738,4.0737,4.0729,4.0727,4.0725,4.0726,4.0767,4.073,4.073,4.073,4.073,4.073,0,4.118,4.1158,4.1126,4.1084,4.1057,4.1049,4.1014,4.0992,4.0958,4.0926,4.0895,4.0851,4.0814,4.078,4.0741,4.0723,4.0716,4.0713,4.0714,4.0709,4.0729,4.0738,4.072,4.072,4.072,4.072,4.072,4.072,4.116,4.1122,4.1107,4.1056,4.1033,4.0996,4.0977,4.0951,4.0926,4.0879,4.0849,4.0828,4.0796,4.0755,4.0721,4.0712,4.0699,4.0698,4.0688,4.0706,4.0708,4.0709,4.0718,4.0695,4.0695,4.0671,4.0671,4.0671]}]]